Location: Croydon
(51.3762°N, 0.0982°W)
Time: 13:52:16
(UTC+00:00)

Altair - Pass Details

Date: 23 November 2019
Orbit: 1502 x 1682 km, 47.2° (Epoch: 07 December)

Event Time Altitude Azimuth Distance (km) Brightness Sun altitude
Rises 00:17:38 0° 190° (S) 4,668 - -58.3°
Reaches altitude 10° 00:21:41 10° 175° (S) 3,669 - -58.1°
Maximum altitude 00:27:53 20° 132° (SE) 2,913 - -57.8°
Drops below altitude 10° 00:34:02 10° 89° (E) 3,656 - -57.5°
Exits shadow 00:35:44 - 82° (E) 4,050 9.9 -57.4°
Sets 00:38:01 0° 74° (ENE) 4,646 10.3 -57.3°
